星链-30222 (STARLINK-30222 )

导读

STARLINK-30222是美国星链(Starlink)项目的低轨互联网卫星,于2023年7月20日发射,隶属于SpaceX公司打造的星链卫星星座系统。它主要为全球提供高速低延迟宽带互联网服务,尤其覆盖偏远地区等网络基础设施薄弱区域,进一步扩充了星链星座的组网规模,助力完成全球卫星互联网覆盖布局。

基本信息
目录编号:
57409
目录名称:
STARLINK-30222
国际标识:
2023-102F
轨道中心:
EARTH
卫星名称:
星链-30222
卫星全名:
星链-30222 (STARLINK-30222 )
卫星状态:
在轨 (已飞行1064 天)
发射日期:
2023-07-20 UTC
国别 :
美国 (US)
星等 :
--
轨道信息
数据来源 国际轨道数据
星历时间: 2026-06-18T08:13:41+0800
13小时前
查看轨道信息
半长轴: 6861.183km
偏心率: 0.000088
轨道倾角: 43.002°
近地点辐角 275.961°
升交点赤经 41.935°
平近点角 84.114°
近地点: 482.442km
远地点: 483.65km
周期: 94.267分钟
每日圈数: 15.275811
详细信息
固有亮度:
5
最大亮度:
0.3
卫星平台:
Starlink v2.0 mini
覆盖范围:
全球
运营商:
太空探索技术公司
运营商所在国:
美国
制造商(研发单位):
太空探索技术公司
制造商所在国:
美国
使用方式:
暂无
卫星简介
星链(Starlink)计划是由太空探索技术公司(SpaceX)提出的一个巨型低轨卫星互联网星座项目,计划在2019年至2024年间在太空搭建由约1.2万颗卫星组成的“星链”网络,其中1584颗将部署在地球上空550千米处的近地轨道,并从2020年开始工作。该卫星仍在工作。
2D轨道图
3D轨道图
轨道高度分析图
轨道倾角分析图
轨道综合分析图
查看轨道综合分析图